FORMOSAT 7-6 (44353 NORAD) Tracking and Keplerian Element Data

This shows tracking and keplerian element data for the satellite.

Feedback or suggestion? Click here.




ElementValue
Catalog44353
NameFORMOSAT 7-6
Epoch Orbit4111
Epoch Day93.67546435
Epoch Year2020
RAAN226.0136
Inclination24.0018
Eccentricity0.0013928
Argument of Perigee47.5888
Mean Anonmoly312.5806
Mean Motion14.53786952
Decay Rate2.39E-06
L11 44353U 19036Q 20093.67546435 .00000239 00000-0 61341-5 0 9996
L22 44353 24.0018 226.0136 0013928 47.5888 312.5806 14.53786952 41111

Live tracking and technical data element details for FORMOSAT 7-6 (NORAD 44353). FORMOSAT 7-6 can be tracked NOW for your location showing map with azimuth and elevation plus other details from your city location.

Track the satellite on the map from your city or location and see movement details for azimuth, elevation, latitude, longitude, range, height, and movement on the map or in text.







IsCatalogInMostPopularTable: catalog: 44353, numindb: 35
Update: records affected: 1



GetName: 44353 FORMOSAT 7-6

Hit Count: updated at: Thu, 09 Apr 2020 06:24:48 GMT